contact:dominique.lefevre@mio.osupytheas.fr, maurice.libes@osupytheas.fr, didier.mallarino@osupytheas.fr
Project:EMSO http://www.emso-fr.org/EMSO-France
Depth: 2436.0 m
Title:EMSO Ligure Ouest : Data MII capteur CSTAR
DateTime,Latitude,Longitude,Instrument_Serial,Reference_Counts,Signal_Counts,Corrected_Signal_raw_counts,Calculated_Beam_c_inverse_meters,Internal_thermistor_counts
DateTime,Latitude,Longitude,Instrument_Serial,Reference_Counts,Signal_Counts,Corrected_Signal_raw_counts,Calculated_Beam_c_inverse_meters,Internal_thermistor_counts
2020-01-31T00:02:57,42.805,6.029,CST-1368DR,6867,9628,15250,0.095,551
2020-01-31T00:05:58,42.805,6.029,CST-1368DR,6867,9627,15250,0.095,551
2020-01-31T00:09:00,42.805,6.029,CST-1368DR,6867,9628,15250,0.095,550
2020-01-31T00:12:02,42.805,6.029,CST-1368DR,6867,9628,15250,0.095,551
2020-01-31T00:15:03,42.805,6.029,CST-1368DR,6867,9628,15250,0.095,551
2020-01-31T00:18:05,42.805,6.029,CST-1368DR,6867,9628,15250,0.095,551
2020-01-31T00:21:06,42.805,6.029,CST-1368DR,6867,9626,15248,0.095,551
2020-01-31T00:24:08,42.805,6.029,CST-1368DR,6867,9627,15250,0.095,551
2020-01-31T00:27:10,42.805,6.029,CST-1368DR,6867,9628,15250,0.095,551
2020-01-31T00:30:11,42.805,6.029,CST-1368DR,6867,9628,15251,0.095,551
2020-01-31T00:33:13,42.805,6.029,CST-1368DR,6867,9627,15249,0.095,551
2020-01-31T00:36:15,42.805,6.029,CST-1368DR,6867,9629,15252,0.094,551
2020-01-31T00:39:16,42.805,6.029,CST-1368DR,6867,9627,15249,0.095,551
2020-01-31T00:42:18,42.805,6.029,CST-1368DR,6867,9628,15250,0.095,551
2020-01-31T00:45:19,42.805,6.029,CST-1368DR,6867,9627,15248,0.095,551
2020-01-31T00:48:21,42.805,6.029,CST-1368DR,6867,9627,15249,0.095,551
2020-01-31T00:51:23,42.805,6.029,CST-1368DR,6867,9627,15249,0.095,551
2020-01-31T00:54:24,42.805,6.029,CST-1368DR,6866,9627,15251,0.095,551
2020-01-31T00:57:26,42.805,6.029,CST-1368DR,6867,9628,15250,0.095,551
2020-01-31T01:00:28,42.805,6.029,CST-1368DR,6866,9626,15249,0.095,551
2020-01-31T01:03:29,42.805,6.029,CST-1368DR,6866,9627,15251,0.095,551
2020-01-31T01:06:31,42.805,6.029,CST-1368DR,6866,9627,15251,0.095,551
2020-01-31T01:09:32,42.805,6.029,CST-1368DR,6867,9628,15250,0.095,551
2020-01-31T01:12:34,42.805,6.029,CST-1368DR,6866,9627,15251,0.095,551
2020-01-31T01:15:36,42.805,6.029,CST-1368DR,6866,9627,15251,0.095,551
2020-01-31T01:18:37,42.805,6.029,CST-1368DR,6866,9626,15250,0.095,551
2020-01-31T01:21:39,42.805,6.029,CST-1368DR,6866,9626,15250,0.095,551
2020-01-31T01:24:41,42.805,6.029,CST-1368DR,6866,9627,15251,0.095,551
2020-01-31T01:27:42,42.805,6.029,CST-1368DR,6866,9625,15248,0.095,551
2020-01-31T01:30:44,42.805,6.029,CST-1368DR,6866,9626,15250,0.095,551
2020-01-31T01:33:46,42.805,6.029,CST-1368DR,6866,9626,15249,0.095,551
2020-01-31T01:36:47,42.805,6.029,CST-1368DR,6866,9626,15250,0.095,551
2020-01-31T01:39:49,42.805,6.029,CST-1368DR,6866,9625,15248,0.095,551
2020-01-31T01:42:50,42.805,6.029,CST-1368DR,6866,9626,15250,0.095,551
2020-01-31T01:45:52,42.805,6.029,CST-1368DR,6866,9626,15249,0.095,551
2020-01-31T01:48:54,42.805,6.029,CST-1368DR,6866,9625,15247,0.096,551
2020-01-31T01:51:55,42.805,6.029,CST-1368DR,6866,9625,15249,0.095,551
2020-01-31T01:54:57,42.805,6.029,CST-1368DR,6866,9626,15250,0.095,551
2020-01-31T01:57:59,42.805,6.029,CST-1368DR,6866,9624,15247,0.096,551
2020-01-31T02:01:00,42.805,6.029,CST-1368DR,6866,9626,15250,0.095,551
2020-01-31T02:04:02,42.805,6.029,CST-1368DR,6866,9627,15251,0.095,551
2020-01-31T02:07:03,42.805,6.029,CST-1368DR,6866,9626,15250,0.095,551
2020-01-31T02:10:05,42.805,6.029,CST-1368DR,6866,9626,15249,0.095,551
2020-01-31T02:13:07,42.805,6.029,CST-1368DR,6866,9627,15251,0.095,551
2020-01-31T02:16:09,42.805,6.029,CST-1368DR,6866,9627,15251,0.095,551
2020-01-31T02:19:10,42.805,6.029,CST-1368DR,6866,9626,15250,0.095,551
2020-01-31T02:22:12,42.805,6.029,CST-1368DR,6866,9626,15249,0.095,551
2020-01-31T02:25:14,42.805,6.029,CST-1368DR,6866,9627,15251,0.095,551
2020-01-31T02:28:16,42.805,6.029,CST-1368DR,6866,9626,15250,0.095,551
2020-01-31T02:31:17,42.805,6.029,CST-1368DR,6866,9626,15250,0.095,551
2020-01-31T02:34:19,42.805,6.029,CST-1368DR,6866,9626,15249,0.095,551
2020-01-31T02:37:21,42.805,6.029,CST-1368DR,6866,9627,15251,0.095,551
2020-01-31T02:40:23,42.805,6.029,CST-1368DR,6866,9626,15250,0.095,551
2020-01-31T02:43:25,42.805,6.029,CST-1368DR,6866,9627,15251,0.095,551
2020-01-31T02:46:26,42.805,6.029,CST-1368DR,6866,9626,15250,0.095,551
2020-01-31T02:49:28,42.805,6.029,CST-1368DR,6866,9627,15251,0.095,551
2020-01-31T02:52:30,42.805,6.029,CST-1368DR,6866,9627,15251,0.095,551
2020-01-31T02:55:31,42.805,6.029,CST-1368DR,6866,9627,15251,0.095,551
2020-01-31T02:58:33,42.805,6.029,CST-1368DR,6866,9627,15251,0.095,551
2020-01-31T03:01:34,42.805,6.029,CST-1368DR,6866,9627,15251,0.095,551
2020-01-31T03:04:36,42.805,6.029,CST-1368DR,6866,9626,15249,0.095,551
2020-01-31T03:07:38,42.805,6.029,CST-1368DR,6866,9626,15250,0.095,551
2020-01-31T03:10:39,42.805,6.029,CST-1368DR,6866,9626,15250,0.095,551
2020-01-31T03:13:41,42.805,6.029,CST-1368DR,6866,9626,15250,0.095,550
2020-01-31T03:16:43,42.805,6.029,CST-1368DR,6866,9627,15251,0.095,551
2020-01-31T03:19:44,42.805,6.029,CST-1368DR,6866,9627,15251,0.095,551
2020-01-31T03:22:46,42.805,6.029,CST-1368DR,6866,9626,15249,0.095,551
2020-01-31T03:25:47,42.805,6.029,CST-1368DR,6866,9627,15251,0.095,551
2020-01-31T03:28:49,42.805,6.029,CST-1368DR,6866,9624,15247,0.096,551
2020-01-31T03:31:51,42.805,6.029,CST-1368DR,6866,9627,15251,0.095,551
2020-01-31T03:34:52,42.805,6.029,CST-1368DR,6866,9626,15249,0.095,551
2020-01-31T03:37:54,42.805,6.029,CST-1368DR,6866,9626,15249,0.095,551
2020-01-31T03:40:56,42.805,6.029,CST-1368DR,6866,9626,15249,0.095,551
2020-01-31T03:43:57,42.805,6.029,CST-1368DR,6866,9627,15251,0.095,551
2020-01-31T03:46:59,42.805,6.029,CST-1368DR,6866,9626,15250,0.095,551
2020-01-31T03:50:01,42.805,6.029,CST-1368DR,6866,9626,15250,0.095,551
2020-01-31T03:53:02,42.805,6.029,CST-1368DR,6866,9626,15249,0.095,551
2020-01-31T03:56:04,42.805,6.029,CST-1368DR,6866,9625,15249,0.095,551
2020-01-31T03:59:06,42.805,6.029,CST-1368DR,6866,9624,15247,0.096,551
2020-01-31T04:02:07,42.805,6.029,CST-1368DR,6866,9626,15249,0.095,550
2020-01-31T04:05:09,42.805,6.029,CST-1368DR,6866,9626,15250,0.095,551
2020-01-31T04:08:10,42.805,6.029,CST-1368DR,6866,9626,15249,0.095,551
2020-01-31T04:11:12,42.805,6.029,CST-1368DR,6866,9625,15248,0.095,551
2020-01-31T04:14:14,42.805,6.029,CST-1368DR,6865,9623,15247,0.096,551
2020-01-31T04:17:15,42.805,6.029,CST-1368DR,6866,9626,15249,0.095,551
2020-01-31T04:20:17,42.805,6.029,CST-1368DR,6865,9626,15251,0.095,551
2020-01-31T04:23:19,42.805,6.029,CST-1368DR,6866,9626,15249,0.095,551
2020-01-31T04:26:20,42.805,6.029,CST-1368DR,6865,9626,15251,0.095,550
2020-01-31T04:29:22,42.805,6.029,CST-1368DR,6865,9625,15250,0.095,551
2020-01-31T04:32:24,42.805,6.029,CST-1368DR,6865,9625,15250,0.095,551
2020-01-31T04:35:25,42.805,6.029,CST-1368DR,6865,9625,15250,0.095,551
2020-01-31T04:38:27,42.805,6.029,CST-1368DR,6865,9625,15249,0.095,551
2020-01-31T04:41:28,42.805,6.029,CST-1368DR,6865,9625,15251,0.095,551
2020-01-31T04:44:30,42.805,6.029,CST-1368DR,6865,9624,15249,0.095,551
2020-01-31T04:47:32,42.805,6.029,CST-1368DR,6865,9625,15250,0.095,550
2020-01-31T04:50:33,42.805,6.029,CST-1368DR,6865,9625,15249,0.095,551
2020-01-31T04:53:35,42.805,6.029,CST-1368DR,6865,9625,15251,0.095,551
2020-01-31T04:56:37,42.805,6.029,CST-1368DR,6865,9625,15249,0.095,551
2020-01-31T04:59:38,42.805,6.029,CST-1368DR,6865,9626,15251,0.095,551
2020-01-31T05:02:40,42.805,6.029,CST-1368DR,6865,9625,15251,0.095,551
2020-01-31T05:05:42,42.805,6.029,CST-1368DR,6865,9626,15252,0.094,551
2020-01-31T05:08:43,42.805,6.029,CST-1368DR,6865,9625,15251,0.095,551
2020-01-31T05:11:45,42.805,6.029,CST-1368DR,6865,9621,15244,0.096,551
2020-01-31T05:14:46,42.805,6.029,CST-1368DR,6865,9625,15249,0.095,551
2020-01-31T05:17:48,42.805,6.029,CST-1368DR,6865,9626,15251,0.095,551
2020-01-31T05:20:50,42.805,6.029,CST-1368DR,6865,9625,15249,0.095,551
2020-01-31T05:23:51,42.805,6.029,CST-1368DR,6865,9624,15249,0.095,551
2020-01-31T05:26:53,42.805,6.029,CST-1368DR,6865,9625,15250,0.095,551
2020-01-31T05:29:55,42.805,6.029,CST-1368DR,6865,9625,15250,0.095,551
2020-01-31T05:32:56,42.805,6.029,CST-1368DR,6865,9626,15251,0.095,551
2020-01-31T05:35:58,42.805,6.029,CST-1368DR,6865,9626,15251,0.095,551
2020-01-31T05:39:00,42.805,6.029,CST-1368DR,6865,9625,15251,0.095,551
2020-01-31T05:42:01,42.805,6.029,CST-1368DR,6865,9626,15252,0.094,551
2020-01-31T05:45:03,42.805,6.029,CST-1368DR,6865,9626,15251,0.095,551
2020-01-31T05:48:04,42.805,6.029,CST-1368DR,6865,9625,15250,0.095,551
2020-01-31T05:51:06,42.805,6.029,CST-1368DR,6865,9624,15249,0.095,551
2020-01-31T05:54:08,42.805,6.029,CST-1368DR,6865,9625,15249,0.095,551
2020-01-31T05:57:09,42.805,6.029,CST-1368DR,6865,9624,15248,0.095,551
2020-01-31T06:00:11,42.805,6.029,CST-1368DR,6865,9624,15248,0.095,551
2020-01-31T06:03:12,42.805,6.029,CST-1368DR,6865,9624,15248,0.095,551
2020-01-31T06:06:14,42.805,6.029,CST-1368DR,6865,9625,15250,0.095,551
2020-01-31T06:09:16,42.805,6.029,CST-1368DR,6865,9624,15249,0.095,551
2020-01-31T06:12:17,42.805,6.029,CST-1368DR,6865,9625,15249,0.095,551
2020-01-31T06:15:19,42.805,6.029,CST-1368DR,6865,9624,15249,0.095,551
2020-01-31T06:18:21,42.805,6.029,CST-1368DR,6865,9625,15250,0.095,551
2020-01-31T06:21:22,42.805,6.029,CST-1368DR,6865,9624,15249,0.095,551
2020-01-31T06:24:24,42.805,6.029,CST-1368DR,6865,9625,15250,0.095,551
2020-01-31T06:27:26,42.805,6.029,CST-1368DR,6865,9624,15249,0.095,551
2020-01-31T06:30:27,42.805,6.029,CST-1368DR,6865,9625,15249,0.095,551
2020-01-31T06:33:29,42.805,6.029,CST-1368DR,6865,9625,15249,0.095,551
2020-01-31T06:36:30,42.805,6.029,CST-1368DR,6865,9624,15249,0.095,551
2020-01-31T06:39:32,42.805,6.029,CST-1368DR,6865,9625,15250,0.095,551
2020-01-31T06:42:34,42.805,6.029,CST-1368DR,6865,9624,15248,0.095,551
2020-01-31T06:45:35,42.805,6.029,CST-1368DR,6865,9624,15249,0.095,551
2020-01-31T06:48:37,42.805,6.029,CST-1368DR,6865,9625,15250,0.095,551
2020-01-31T06:51:39,42.805,6.029,CST-1368DR,6865,9625,15249,0.095,551
2020-01-31T06:54:40,42.805,6.029,CST-1368DR,6865,9625,15249,0.095,551
2020-01-31T06:57:42,42.805,6.029,CST-1368DR,6865,9624,15249,0.095,551
2020-01-31T07:00:43,42.805,6.029,CST-1368DR,6865,9624,15249,0.095,551
2020-01-31T07:03:45,42.805,6.029,CST-1368DR,6865,9624,15248,0.095,551
2020-01-31T07:06:47,42.805,6.029,CST-1368DR,6865,9624,15249,0.095,551
2020-01-31T07:09:48,42.805,6.029,CST-1368DR,6865,9624,15249,0.095,551
2020-01-31T07:12:50,42.805,6.029,CST-1368DR,6865,9624,15249,0.095,551
2020-01-31T07:15:52,42.805,6.029,CST-1368DR,6865,9624,15248,0.095,551
2020-01-31T07:18:53,42.805,6.029,CST-1368DR,6865,9625,15250,0.095,551
2020-01-31T07:21:55,42.805,6.029,CST-1368DR,6865,9624,15249,0.095,551
2020-01-31T07:24:57,42.805,6.029,CST-1368DR,6865,9625,15249,0.095,551
2020-01-31T07:27:58,42.805,6.029,CST-1368DR,6865,9624,15249,0.095,551
2020-01-31T07:31:00,42.805,6.029,CST-1368DR,6865,9625,15250,0.095,551
2020-01-31T07:34:01,42.805,6.029,CST-1368DR,6865,9624,15248,0.095,551
2020-01-31T07:37:03,42.805,6.029,CST-1368DR,6865,9624,15249,0.095,551
2020-01-31T07:40:05,42.805,6.029,CST-1368DR,6865,9624,15249,0.095,551
2020-01-31T07:43:06,42.805,6.029,CST-1368DR,6865,9624,15249,0.095,551
2020-01-31T07:46:08,42.805,6.029,CST-1368DR,6865,9624,15249,0.095,551
2020-01-31T07:49:10,42.805,6.029,CST-1368DR,6865,9624,15249,0.095,551
2020-01-31T07:52:11,42.805,6.029,CST-1368DR,6865,9624,15248,0.095,551
2020-01-31T07:55:13,42.805,6.029,CST-1368DR,6865,9624,15248,0.095,551
2020-01-31T07:58:15,42.805,6.029,CST-1368DR,6865,9624,15249,0.095,551
2020-01-31T08:01:16,42.805,6.029,CST-1368DR,6865,9624,15248,0.095,551
2020-01-31T08:04:18,42.805,6.029,CST-1368DR,6865,9624,15249,0.095,551
2020-01-31T08:07:20,42.805,6.029,CST-1368DR,6865,9624,15249,0.095,551
2020-01-31T08:10:21,42.805,6.029,CST-1368DR,6865,9624,15248,0.095,551
2020-01-31T08:13:23,42.805,6.029,CST-1368DR,6865,9625,15249,0.095,551
2020-01-31T08:16:25,42.805,6.029,CST-1368DR,6864,9624,15250,0.095,551
2020-01-31T08:19:26,42.805,6.029,CST-1368DR,6865,9624,15249,0.095,551
2020-01-31T08:22:28,42.805,6.029,CST-1368DR,6865,9623,15247,0.096,551
2020-01-31T08:25:30,42.805,6.029,CST-1368DR,6864,9624,15250,0.095,551
2020-01-31T08:28:31,42.805,6.029,CST-1368DR,6865,9624,15248,0.095,551
2020-01-31T08:31:33,42.805,6.029,CST-1368DR,6865,9624,15248,0.095,550
2020-01-31T08:34:35,42.805,6.029,CST-1368DR,6865,9624,15249,0.095,551
2020-01-31T08:37:36,42.805,6.029,CST-1368DR,6864,9624,15250,0.095,551
2020-01-31T08:40:38,42.805,6.029,CST-1368DR,6864,9624,15251,0.095,551
2020-01-31T08:43:40,42.805,6.029,CST-1368DR,6864,9624,15250,0.095,551
2020-01-31T08:46:41,42.805,6.029,CST-1368DR,6864,9624,15250,0.095,551
2020-01-31T08:49:43,42.805,6.029,CST-1368DR,6864,9624,15250,0.095,551
2020-01-31T08:52:44,42.805,6.029,CST-1368DR,6864,9624,15250,0.095,551
2020-01-31T08:55:46,42.805,6.029,CST-1368DR,6864,9624,15250,0.095,551
2020-01-31T08:58:48,42.805,6.029,CST-1368DR,6864,9621,15246,0.096,551
2020-01-31T09:01:49,42.805,6.029,CST-1368DR,6864,9623,15250,0.095,551
2020-01-31T09:04:51,42.805,6.029,CST-1368DR,6864,9621,15245,0.096,551
2020-01-31T09:07:53,42.805,6.029,CST-1368DR,6864,9624,15250,0.095,551
2020-01-31T09:10:54,42.805,6.029,CST-1368DR,6864,9623,15249,0.095,551
2020-01-31T09:13:56,42.805,6.029,CST-1368DR,6864,9624,15250,0.095,551
2020-01-31T09:16:57,42.805,6.029,CST-1368DR,6864,9623,15249,0.095,551
2020-01-31T09:19:59,42.805,6.029,CST-1368DR,6864,9624,15250,0.095,551
2020-01-31T09:23:01,42.805,6.029,CST-1368DR,6864,9623,15250,0.095,551
2020-01-31T09:26:02,42.805,6.029,CST-1368DR,6864,9623,15250,0.095,551
2020-01-31T09:29:04,42.805,6.029,CST-1368DR,6864,9624,15250,0.095,551
2020-01-31T09:32:06,42.805,6.029,CST-1368DR,6864,9623,15250,0.095,551
2020-01-31T09:35:07,42.805,6.029,CST-1368DR,6864,9623,15250,0.095,551
2020-01-31T09:38:09,42.805,6.029,CST-1368DR,6864,9624,15250,0.095,551
2020-01-31T09:41:10,42.805,6.029,CST-1368DR,6864,9622,15247,0.096,551
2020-01-31T09:44:12,42.805,6.029,CST-1368DR,6864,9622,15248,0.095,551
2020-01-31T09:47:14,42.805,6.029,CST-1368DR,6864,9623,15249,0.095,551
2020-01-31T09:50:15,42.805,6.029,CST-1368DR,6864,9623,15249,0.095,551
2020-01-31T09:53:17,42.805,6.029,CST-1368DR,6864,9623,15249,0.095,551
2020-01-31T09:56:19,42.805,6.029,CST-1368DR,6864,9622,15248,0.095,551
2020-01-31T09:59:20,42.805,6.029,CST-1368DR,6864,9623,15250,0.095,551
2020-01-31T10:02:22,42.805,6.029,CST-1368DR,6864,9623,15249,0.095,551
2020-01-31T10:05:23,42.805,6.029,CST-1368DR,6864,9623,15248,0.095,551
2020-01-31T10:08:25,42.805,6.029,CST-1368DR,6864,9623,15250,0.095,551
2020-01-31T10:11:27,42.805,6.029,CST-1368DR,6864,9623,15248,0.095,551
2020-01-31T10:14:28,42.805,6.029,CST-1368DR,6864,9623,15248,0.095,551
2020-01-31T10:17:30,42.805,6.029,CST-1368DR,6864,9623,15249,0.095,551
2020-01-31T10:20:32,42.805,6.029,CST-1368DR,6864,9623,15249,0.095,550
2020-01-31T10:23:33,42.805,6.029,CST-1368DR,6864,9623,15249,0.095,551
2020-01-31T10:26:35,42.805,6.029,CST-1368DR,6864,9623,15249,0.095,551
2020-01-31T10:29:37,42.805,6.029,CST-1368DR,6864,9623,15249,0.095,551
2020-01-31T10:32:38,42.805,6.029,CST-1368DR,6864,9622,15248,0.095,551
2020-01-31T10:35:40,42.805,6.029,CST-1368DR,6864,9622,15248,0.095,551
2020-01-31T10:38:41,42.805,6.029,CST-1368DR,6864,9622,15248,0.095,551
2020-01-31T10:41:43,42.805,6.029,CST-1368DR,6864,9623,15249,0.095,551
2020-01-31T10:44:45,42.805,6.029,CST-1368DR,6864,9623,15248,0.095,551
2020-01-31T10:47:46,42.805,6.029,CST-1368DR,6864,9623,15248,0.095,551
2020-01-31T10:50:48,42.805,6.029,CST-1368DR,6864,9622,15248,0.095,551
2020-01-31T10:53:50,42.805,6.029,CST-1368DR,6864,9622,15248,0.095,551
2020-01-31T10:56:51,42.805,6.029,CST-1368DR,6864,9622,15248,0.095,551
2020-01-31T10:59:53,42.805,6.029,CST-1368DR,6864,9622,15248,0.095,551
2020-01-31T11:02:55,42.805,6.029,CST-1368DR,6864,9622,15248,0.095,551
2020-01-31T11:05:56,42.805,6.029,CST-1368DR,6864,9621,15246,0.096,551
2020-01-31T11:08:58,42.805,6.029,CST-1368DR,6864,9621,15246,0.096,551
2020-01-31T11:12:00,42.805,6.029,CST-1368DR,6864,9622,15247,0.096,551
2020-01-31T11:15:01,42.805,6.029,CST-1368DR,6864,9621,15246,0.096,551
2020-01-31T11:18:03,42.805,6.029,CST-1368DR,6864,9622,15248,0.095,551
2020-01-31T11:21:04,42.805,6.029,CST-1368DR,6864,9622,15248,0.095,551
2020-01-31T11:24:06,42.805,6.029,CST-1368DR,6864,9621,15246,0.096,551
2020-01-31T11:27:08,42.805,6.029,CST-1368DR,6864,9622,15248,0.095,551
2020-01-31T11:30:09,42.805,6.029,CST-1368DR,6864,9621,15246,0.096,551
2020-01-31T11:33:11,42.805,6.029,CST-1368DR,6864,9622,15248,0.095,551
2020-01-31T11:36:13,42.805,6.029,CST-1368DR,6864,9621,15246,0.096,550
2020-01-31T11:39:14,42.805,6.029,CST-1368DR,6864,9622,15247,0.096,551
2020-01-31T11:42:16,42.805,6.029,CST-1368DR,6864,9621,15246,0.096,551
2020-01-31T11:45:17,42.805,6.029,CST-1368DR,6864,9622,15248,0.095,551
2020-01-31T11:48:19,42.805,6.029,CST-1368DR,6864,9621,15246,0.096,550
2020-01-31T11:51:21,42.805,6.029,CST-1368DR,6864,9621,15246,0.096,551
2020-01-31T11:54:22,42.805,6.029,CST-1368DR,6864,9622,15248,0.095,551
2020-01-31T11:57:24,42.805,6.029,CST-1368DR,6864,9622,15248,0.095,551
2020-01-31T12:00:26,42.805,6.029,CST-1368DR,6864,9622,15247,0.096,551
2020-01-31T12:03:27,42.805,6.029,CST-1368DR,6864,9621,15246,0.096,551
2020-01-31T12:06:29,42.805,6.029,CST-1368DR,6864,9622,15247,0.096,551
2020-01-31T12:09:30,42.805,6.029,CST-1368DR,6864,9622,15248,0.095,551
2020-01-31T12:12:32,42.805,6.029,CST-1368DR,6864,9622,15247,0.096,551
2020-01-31T12:15:34,42.805,6.029,CST-1368DR,6864,9622,15248,0.095,551
2020-01-31T12:18:35,42.805,6.029,CST-1368DR,6863,9622,15249,0.095,551
2020-01-31T12:21:37,42.805,6.029,CST-1368DR,6863,9621,15248,0.095,551
2020-01-31T12:24:39,42.805,6.029,CST-1368DR,6863,9621,15248,0.095,551
2020-01-31T12:27:40,42.805,6.029,CST-1368DR,6863,9621,15248,0.095,551
2020-01-31T12:30:43,42.805,6.029,CST-1368DR,6863,9620,15246,0.096,551
2020-01-31T12:33:45,42.805,6.029,CST-1368DR,6863,9620,15246,0.096,550
2020-01-31T12:36:46,42.805,6.029,CST-1368DR,6863,9620,15247,0.096,551
2020-01-31T12:39:48,42.805,6.029,CST-1368DR,6863,9620,15246,0.096,551
2020-01-31T12:42:50,42.805,6.029,CST-1368DR,6863,9621,15248,0.095,551
2020-01-31T12:45:51,42.805,6.029,CST-1368DR,6864,9621,15246,0.096,551
2020-01-31T12:48:53,42.805,6.029,CST-1368DR,6863,9622,15249,0.095,551
2020-01-31T12:51:55,42.805,6.029,CST-1368DR,6863,9621,15248,0.095,551
2020-01-31T12:54:56,42.805,6.029,CST-1368DR,6863,9621,15248,0.095,551
2020-01-31T12:57:58,42.805,6.029,CST-1368DR,6863,9621,15247,0.096,551
2020-01-31T13:00:59,42.805,6.029,CST-1368DR,6863,9621,15248,0.095,550
2020-01-31T13:04:01,42.805,6.029,CST-1368DR,6863,9621,15248,0.095,551
2020-01-31T13:07:03,42.805,6.029,CST-1368DR,6863,9622,15250,0.095,551
2020-01-31T13:10:04,42.805,6.029,CST-1368DR,6863,9622,15249,0.095,551
2020-01-31T13:13:06,42.805,6.029,CST-1368DR,6863,9621,15248,0.095,550
2020-01-31T13:16:08,42.805,6.029,CST-1368DR,6863,9621,15248,0.095,551
2020-01-31T13:19:09,42.805,6.029,CST-1368DR,6863,9621,15248,0.095,551
2020-01-31T13:22:11,42.805,6.029,CST-1368DR,6863,9621,15248,0.095,551
2020-01-31T13:25:13,42.805,6.029,CST-1368DR,6863,9621,15248,0.095,551
2020-01-31T13:28:14,42.805,6.029,CST-1368DR,6863,9621,15248,0.095,551
2020-01-31T13:31:16,42.805,6.029,CST-1368DR,6863,9612,15233,0.099,551
2020-01-31T13:34:18,42.805,6.029,CST-1368DR,6863,9616,15240,0.097,551
2020-01-31T13:37:20,42.805,6.029,CST-1368DR,6863,9621,15247,0.096,551
2020-01-31T13:40:22,42.805,6.029,CST-1368DR,6863,9621,15248,0.095,551
2020-01-31T13:43:23,42.805,6.029,CST-1368DR,6863,9621,15248,0.095,551
2020-01-31T13:46:25,42.805,6.029,CST-1368DR,6863,9621,15247,0.096,551
2020-01-31T13:49:27,42.805,6.029,CST-1368DR,6863,9621,15247,0.096,551
2020-01-31T13:52:28,42.805,6.029,CST-1368DR,6863,9619,15245,0.096,551
2020-01-31T13:55:30,42.805,6.029,CST-1368DR,6863,9619,15245,0.096,551
2020-01-31T13:58:32,42.805,6.029,CST-1368DR,6863,9619,15245,0.096,551
2020-01-31T14:01:33,42.805,6.029,CST-1368DR,6863,9620,15246,0.096,551
2020-01-31T14:04:35,42.805,6.029,CST-1368DR,6863,9621,15247,0.096,551
2020-01-31T14:07:36,42.805,6.029,CST-1368DR,6863,9620,15246,0.096,551
2020-01-31T14:10:38,42.805,6.029,CST-1368DR,6863,9620,15247,0.096,551
2020-01-31T14:13:40,42.805,6.029,CST-1368DR,6863,9621,15248,0.095,551
2020-01-31T14:16:41,42.805,6.029,CST-1368DR,6863,9619,15245,0.096,551
2020-01-31T14:19:43,42.805,6.029,CST-1368DR,6863,9621,15247,0.096,551
2020-01-31T14:22:45,42.805,6.029,CST-1368DR,6863,9621,15248,0.095,551
2020-01-31T14:25:46,42.805,6.029,CST-1368DR,6863,9620,15247,0.096,551
2020-01-31T14:28:48,42.805,6.029,CST-1368DR,6863,9621,15248,0.095,550
2020-01-31T14:31:50,42.805,6.029,CST-1368DR,6863,9621,15247,0.096,551
2020-01-31T14:34:51,42.805,6.029,CST-1368DR,6863,9619,15244,0.096,551
2020-01-31T14:37:53,42.805,6.029,CST-1368DR,6863,9620,15246,0.096,551
2020-01-31T14:40:54,42.805,6.029,CST-1368DR,6863,9621,15248,0.095,551
2020-01-31T14:43:56,42.805,6.029,CST-1368DR,6863,9621,15248,0.095,551
2020-01-31T14:46:58,42.805,6.029,CST-1368DR,6863,9620,15246,0.096,551
2020-01-31T14:49:59,42.805,6.029,CST-1368DR,6863,9621,15247,0.096,551
2020-01-31T14:53:01,42.805,6.029,CST-1368DR,6863,9621,15248,0.095,551
2020-01-31T14:56:03,42.805,6.029,CST-1368DR,6863,9621,15247,0.096,551
2020-01-31T14:59:04,42.805,6.029,CST-1368DR,6863,9621,15248,0.095,551
2020-01-31T15:02:06,42.805,6.029,CST-1368DR,6863,9620,15247,0.096,551
2020-01-31T15:05:07,42.805,6.029,CST-1368DR,6863,9619,15245,0.096,551
2020-01-31T15:08:09,42.805,6.029,CST-1368DR,6863,9621,15247,0.096,551
2020-01-31T15:11:11,42.805,6.029,CST-1368DR,6863,9620,15246,0.096,551
2020-01-31T15:14:12,42.805,6.029,CST-1368DR,6863,9621,15248,0.095,551
2020-01-31T15:17:14,42.805,6.029,CST-1368DR,6863,9619,15245,0.096,551
2020-01-31T15:20:16,42.805,6.029,CST-1368DR,6863,9620,15246,0.096,551
2020-01-31T15:23:17,42.805,6.029,CST-1368DR,6863,9619,15245,0.096,551
2020-01-31T15:26:19,42.805,6.029,CST-1368DR,6863,9621,15247,0.096,551
2020-01-31T15:29:21,42.805,6.029,CST-1368DR,6863,9620,15246,0.096,550
2020-01-31T15:32:23,42.805,6.029,CST-1368DR,6863,9619,15244,0.096,551
2020-01-31T15:35:24,42.805,6.029,CST-1368DR,6863,9619,15245,0.096,551
2020-01-31T15:38:26,42.805,6.029,CST-1368DR,6862,9617,15244,0.096,551
2020-01-31T15:41:27,42.805,6.029,CST-1368DR,6862,9619,15247,0.096,551
2020-01-31T15:44:29,42.805,6.029,CST-1368DR,6863,9620,15246,0.096,551
2020-01-31T15:47:31,42.805,6.029,CST-1368DR,6862,9619,15247,0.096,551
2020-01-31T15:50:32,42.805,6.029,CST-1368DR,6863,9620,15246,0.096,551
2020-01-31T15:53:34,42.805,6.029,CST-1368DR,6863,9620,15247,0.096,551
2020-01-31T15:56:36,42.805,6.029,CST-1368DR,6863,9619,15244,0.096,551
2020-01-31T15:59:37,42.805,6.029,CST-1368DR,6863,9619,15245,0.096,551
2020-01-31T16:02:39,42.805,6.029,CST-1368DR,6863,9620,15247,0.096,551
2020-01-31T16:05:41,42.805,6.029,CST-1368DR,6862,9620,15249,0.095,551
2020-01-31T16:08:42,42.805,6.029,CST-1368DR,6862,9620,15248,0.095,551
2020-01-31T16:11:44,42.805,6.029,CST-1368DR,6863,9620,15246,0.096,551
2020-01-31T16:14:45,42.805,6.029,CST-1368DR,6862,9620,15248,0.095,551
2020-01-31T16:17:47,42.805,6.029,CST-1368DR,6862,9619,15246,0.096,551
2020-01-31T16:20:49,42.805,6.029,CST-1368DR,6862,9621,15250,0.095,551
2020-01-31T16:23:50,42.805,6.029,CST-1368DR,6862,9621,15250,0.095,551
2020-01-31T16:26:52,42.805,6.029,CST-1368DR,6863,9621,15247,0.096,551
2020-01-31T16:29:54,42.805,6.029,CST-1368DR,6862,9620,15249,0.095,551
2020-01-31T16:32:56,42.805,6.029,CST-1368DR,6862,9620,15249,0.095,551
2020-01-31T16:35:57,42.805,6.029,CST-1368DR,6862,9620,15249,0.095,551
2020-01-31T16:38:59,42.805,6.029,CST-1368DR,6862,9619,15247,0.096,551
2020-01-31T16:42:01,42.805,6.029,CST-1368DR,6862,9619,15247,0.096,551
2020-01-31T16:45:02,42.805,6.029,CST-1368DR,6862,9620,15249,0.095,551
2020-01-31T16:48:04,42.805,6.029,CST-1368DR,6862,9620,15248,0.095,551
2020-01-31T16:51:05,42.805,6.029,CST-1368DR,6862,9620,15249,0.095,551
2020-01-31T16:54:07,42.805,6.029,CST-1368DR,6862,9617,15244,0.096,551